Home > Weather > Bastia > Past weeks

Flag for France Past Weather in Bastia, Corsica, France — Yesterday and Last 2 Weeks

Now
82 °F

Sunny.


Feels Like: 85 °F
Forecast: 70 / 81 °F
Wind: 2 mph from North

Location: Bastia Airport

Current Time: Jul 27, 2016 at 10:02:33 AM

Latest Report: Jul 27, 2016 at 9:00 AM


Visibility: 10 mi

Pressure: 29.98 "Hg

Humidity: 58%

Dew Point: 66 °F

Location of BastiaLocation

Past Weather in Bastia — Graph

°F

Bastia Temperature Yesterday

Maximum temperature yesterday: 88 °F (at 3:30 PM)
Minimum temperature yesterday: 70 °F (at 12:00 AM)
Average temperature yesterday: 79 °F

High & Low Weather Summary for the Past Weeks

 TemperatureHumidityPressure
High88 °F (Jul 25, 6:30 PM)94% (Jul 23, 3:30 AM)30.18 "Hg (Jul 23, 3:30 AM)
Low63 °F (Jul 16, 2:00 AM)23% (Jul 14, 9:30 AM)29.77 "Hg (Jul 13, 6:30 PM)
Average76 °F61%29.99 "Hg
* Reported Jul 12 9:00 AM — Jul 27 9:00 AM, Bastia, Weather by CustomWeather, © 2016

Note: Actual official high and low records may vary slightly from our data, if they occured in-between our weather recording intervals... More about our weather records

Advertising

Bastia Weather History for the Previous 24 Hours

Scroll right to see more
 ConditionsComfort  
Time TempWeatherWind HumidityBarometerVisibility
9:00 AM
Wed, Jul 27
82 °FSunny.2 mph58%29.98 "Hg10 mi
8:30 AM81 °FSunny.1 mph62%29.98 "Hg10 mi
8:00 AM77 °FSunny.3 mph69%29.98 "Hg10 mi
7:30 AM75 °FSunny.2 mph65%29.98 "Hg10 mi
7:00 AM72 °FClear.6 mph73%29.98 "Hg10 mi
6:30 AM72 °FClear.No wind69%29.98 "Hg10 mi
6:00 AM72 °FClear.3 mph69%29.98 "Hg10 mi
5:30 AM72 °FClear.5 mph69%29.98 "Hg10 mi
5:00 AM72 °FClear.3 mph73%29.95 "Hg10 mi
4:30 AM72 °FClear.No wind69%29.95 "Hg10 mi
4:00 AM73 °FClear.3 mph65%29.95 "Hg10 mi
3:30 AM73 °FClear.3 mph69%29.95 "Hg10 mi
3:00 AM75 °FClear.10 mph65%29.98 "Hg10 mi
2:30 AM73 °FClear.8 mph74%29.98 "Hg10 mi
2:00 AM70 °FClear.1 mph83%29.98 "Hg10 mi
1:30 AM72 °FClear.2 mph78%29.98 "Hg10 mi
1:00 AM73 °FClear.3 mph74%29.98 "Hg10 mi
12:30 AM73 °FClear.5 mph83%29.98 "Hg10 mi
12:00 AM73 °FPassing clouds.5 mph83%29.98 "HgN/A
11:30 PM
Tue, Jul 26
73 °FClear.5 mph83%29.98 "Hg10 mi
11:00 PM73 °FPassing clouds.3 mph78%29.98 "HgN/A
10:30 PM75 °FPassing clouds.5 mph78%29.98 "HgN/A
10:00 PM75 °FPassing clouds.No wind83%29.98 "HgN/A
9:30 PM77 °FScattered clouds.2 mph79%29.98 "HgN/A
9:00 PM77 °FScattered clouds.2 mph79%29.95 "HgN/A
8:30 PM79 °FScattered clouds.3 mph79%29.95 "HgN/A
8:00 PM81 °FScattered clouds.3 mph74%29.95 "HgN/A
7:30 PM81 °FPassing clouds.5 mph66%29.95 "HgN/A
7:00 PM84 °FPassing clouds.5 mph55%29.95 "HgN/A
6:30 PM84 °FScattered clouds.7 mph58%29.95 "HgN/A
6:00 PM86 °FPassing clouds.6 mph52%29.95 "HgN/A
5:30 PM86 °FPassing clouds.5 mph55%29.95 "HgN/A
5:00 PM86 °FPassing clouds.5 mph55%29.98 "HgN/A
4:30 PM86 °FPassing clouds.8 mph59%29.95 "HgN/A
4:00 PM88 °FPassing clouds.6 mph46%29.95 "HgN/A
3:30 PM88 °FPassing clouds.6 mph49%29.95 "HgN/A
3:00 PM86 °FPassing clouds.7 mph55%29.95 "HgN/A
2:00 PM86 °FPassing clouds.6 mph52%29.98 "HgN/A
1:30 PM86 °FPassing clouds.7 mph55%29.98 "HgN/A
1:00 PM86 °FPassing clouds.6 mph59%29.98 "HgN/A
12:30 PM84 °FPassing clouds.3 mph66%29.98 "HgN/A
12:00 PM84 °FPassing clouds.6 mph62%29.98 "HgN/A
11:30 AM84 °FPassing clouds.8 mph62%29.98 "HgN/A
11:00 AM82 °FPassing clouds.7 mph66%29.98 "HgN/A
10:30 AM82 °FPassing clouds.6 mph66%29.98 "HgN/A
10:00 AM82 °FPassing clouds.7 mph66%29.98 "HgN/A
Weather by CustomWeather, © 2016

See weather overviewHow to use our weather pages